Flag for Austria Weather past 2 weeks in Grieskirchen, Upper Austria, Austria

Now
70 °F

Scattered clouds.


Feels Like: 70 °F
Forecast: 58 / 67 °F
Wind: 5 mph from Northwest

Location: Linz / Hoersching-Flughafen

Current Time: Sep 20, 2014 at 4:59:33 PM

Latest Report: Sep 20, 2014 at 3:20 PM


Visibility: N/A

Pressure: 29.98 "Hg

Humidity: 73%

Dew point: 61 °F

Location of GrieskirchenLocation

Historic Weather in Grieskirchen — Graph

°F

Grieskirchen temperature yesterday

Maximum temperature yesterday: 75 °F (at 3:50 PM)
Minimum temperature yesterday: 54 °F (at 3:20 AM)
Average temperature yesterday: 63 °F

Past Weeks' High & Low Weather Summary

 TemperatureHumidityPressure
High79 °F (Sep 7, 4:20 PM)100% (Sep 5, 9:50 PM)30.09 "Hg (Sep 5, 9:50 PM)
Low52 °F (Sep 13, 1:50 AM)41% (Sep 17, 3:20 PM)29.89 "Hg (Sep 12, 4:20 AM)
Average62 °F81%29.99 "Hg
* Reported Sep 5 2:20 PM — Sep 20 2:50 PM, Grieskirchen, Weather by CustomWeather, © 2014

Note: Actual official high and low records may vary slightly from our data, if they occured in-between our weather recording intervals... More about our weather records

Advertising

Grieskirchen weather history for previous 24 hours

 ConditionsComfort  
Time TempWeatherWind HumidityBarometerVisibility
2:50 PM
Sep 20
68 °FPartly sunny.5 mph78%29.98 "HgN/A
2:20 PM68 °FPartly sunny.5 mph78%30.01 "HgN/A
1:50 PM68 °FPartly sunny.3 mph78%30.01 "HgN/A
1:20 PM68 °FPartly sunny.2 mph78%30.01 "HgN/A
12:50 PM68 °FPartly sunny.2 mph78%30.01 "HgN/A
12:20 PM66 °FBroken clouds.2 mph83%30.01 "HgN/A
11:50 AM66 °FBroken clouds.2 mph83%30.01 "Hg5 mi
11:20 AM64 °FBroken clouds.2 mph88%30.01 "Hg4 mi
10:50 AM63 °FBroken clouds.2 mph94%30.01 "Hg4 mi
10:20 AM61 °FFog.2 mph94%30.01 "Hg3 mi
9:50 AM61 °FFog.3 mph94%30.04 "Hg1 mi
9:20 AM59 °FFog.3 mph100%30.01 "Hg1 mi
8:50 AM59 °FFog.3 mph100%30.01 "Hg0 mi
8:20 AM59 °FFog.2 mph100%30.01 "Hg0 mi
7:50 AM59 °FFog.3 mph100%30.01 "Hg0 mi
7:20 AM59 °FFog.1 mph100%30.01 "Hg0 mi
6:50 AM59 °FFog.2 mph100%30.01 "Hg0 mi
6:20 AM59 °FFog.2 mph100%30.01 "Hg0 mi
5:50 AM59 °FFog.2 mph100%30.01 "Hg0 mi
5:20 AM57 °FFog.1 mph100%30.01 "Hg0 mi
4:50 AM57 °FFog.2 mph100%30.01 "Hg0 mi
4:20 AM57 °FFog.1 mph100%30.01 "Hg0 mi
3:50 AM57 °FFog.3 mph100%30.01 "Hg0 mi
2:50 AM59 °FFog.2 mph94%30.01 "Hg0 mi
1:50 AM61 °FFog.2 mph94%30.01 "Hg2 mi
1:20 AM61 °FFog.2 mph94%30.01 "Hg2 mi
12:50 AM63 °FDrizzle. Fog.2 mph94%30.01 "Hg3 mi
12:20 AM63 °FRain. Fog.3 mph94%30.04 "Hg2 mi
11:50 PM
Sep 19
63 °FRain. Overcast.7 mph88%30.04 "Hg4 mi
11:20 PM64 °FDrizzle. Overcast.3 mph83%30.04 "Hg6 mi
10:50 PM64 °FPassing clouds.5 mph83%30.01 "HgN/A
10:20 PM64 °FPartly cloudy.1 mph83%29.98 "HgN/A
9:50 PM64 °FPartly cloudy.5 mph83%29.98 "HgN/A
9:20 PM63 °FPartly cloudy.7 mph88%29.98 "HgN/A
8:50 PM63 °FPartly cloudy.7 mph88%29.98 "HgN/A
8:20 PM64 °FClear.7 mph78%29.98 "Hg10 mi
7:50 PM66 °FSunny.5 mph73%29.98 "Hg10 mi
7:20 PM66 °FSunny.5 mph73%29.95 "Hg10 mi
6:50 PM68 °FSunny.6 mph69%29.95 "Hg10 mi
6:20 PM70 °FSunny.7 mph69%29.95 "Hg10 mi
5:50 PM72 °FPassing clouds.7 mph65%29.95 "HgN/A
5:20 PM73 °FPassing clouds.7 mph57%29.95 "HgN/A
4:50 PM75 °FPassing clouds.7 mph54%29.95 "HgN/A
4:20 PM75 °FPassing clouds.7 mph57%29.95 "HgN/A
Weather by CustomWeather, © 2014

See weather overviewHow to use our weather pages